Chicago Executive, IL

2:13 PM CDT on September 19, 2017 (GMT -0500)
Chicago Executive

Weather History for KPWK - January, 2014

Change the Weather History Date:

Saturday, January 25, 2014

  Actual Average Record
Temperature  
Mean Temperature 20 °F 24 °F  
Max Temperature 33 °F 31 °F 50 °F (2002)
Min Temperature 7 °F 16 °F -5 °F (2008)
Degree Days  
Heating Degree Days 45 41  
Month to date heating degree days 1156 1037  
Since 1 July heating degree days 3720 3454  
Cooling Degree Days 0 0  
Month to date cooling degree days 0 0  
Year to date cooling degree days 0 0  
Moisture  
Dew Point 7 °F    
Average Humidity 60    
Maximum Humidity 89    
Minimum Humidity 37    
Precipitation  
Precipitation T in 0.05 in 0.10 in (2017)
Month to date precipitation 1.21 1.32  
Year to date precipitation 1.21 1.32  
Sea Level Pressure  
Sea Level Pressure 29.63 in    
Wind  
Wind Speed 15 mph (WNW)    
Max Wind Speed 26 mph    
Max Gust Speed 37 mph    
Visibility 10 miles    
Events Rain , Snow    
T = Trace of Precipitation, MM = Missing Value Source: NWS Daily Summary

Daily Weather History Graph

Daily Weather History Graph

Search for Another Location

Airport or City:

Trip Planner

Search our weather history database for the weather conditions in past years. The results will help you decide how hot, cold, wet, or windy it might be!

Date:

Astronomy

Jan. 25, 2014 Rise Set
Actual Time 7:11 AM CST 4:57 PM CST
Civil Twilight 6:40 AM CST 5:27 PM CST
Nautical Twilight 6:06 AM CST 6:01 PM CST
Astronomical Twilight 5:33 AM CST 6:34 PM CST
Moon 1:42 AM CST (1/25) 11:57 AM CST (1/25)
Length of Visible Light 10h 46m
Length of Day
9h 46m
Waning Crescent, 34% of the Moon is Illuminated
Jan 25
Waning Crescent
Jan 30
New
Feb 6
First Quarter
Feb 14
Full
Feb 22
Last Quarter

Hourly Weather History & Observations

Time (CST) Temp. Windchill Dew Point Humidity Pressure Visibility Wind Dir Wind Speed Gust Speed Precip Events Conditions
12:52 AM 28.9 °F 19.2 °F 26.1 °F 89% 29.44 in - WSW 11.5 mph 24.2 mph 0.00 in Snow Light Snow
1:31 AM 30.2 °F 19.8 °F 26.6 °F 86% 29.40 in - WSW 13.8 mph 21.9 mph 0.00 in   Overcast
1:52 AM 30.0 °F 21.1 °F 26.1 °F 85% 29.42 in - WSW 10.4 mph 18.4 mph 0.00 in   Overcast
2:52 AM 30.9 °F 22.2 °F 28.0 °F 89% 29.42 in - West 10.4 mph - 0.00 in   Overcast
3:04 AM 32.0 °F 22.5 °F 28.4 °F 87% 29.39 in - West 12.7 mph - 0.00 in Rain Rain
3:32 AM 32.0 °F 21.6 °F 28.4 °F 87% 29.39 in - WNW 15.0 mph 21.9 mph 0.00 in Snow Light Snow
3:52 AM 33.1 °F 24.4 °F 28.0 °F 82% 29.42 in - NW 11.5 mph - 0.00 in Snow Light Snow
4:19 AM 30.2 °F 18.5 °F 23.0 °F 75% 29.40 in - NW 17.3 mph 25.3 mph 0.00 in   Scattered Clouds
4:52 AM 28.9 °F 20.4 °F 19.0 °F 67% 29.43 in - WNW 9.2 mph - 0.00 in   Clear
5:52 AM 28.0 °F 16.1 °F 16.0 °F 61% 29.46 in - WNW 16.1 mph 26.5 mph N/A   Clear
6:52 AM 25.0 °F 10.9 °F 7.0 °F 46% 29.49 in 10.0 mi NW 19.6 mph 27.6 mph N/A   Clear
7:52 AM 21.9 °F 6.2 °F -0.9 °F 37% 29.53 in 10.0 mi NW 21.9 mph 35.7 mph N/A   Overcast
8:52 AM 19.9 °F 5.2 °F 1.0 °F 44% 29.58 in 10.0 mi NNW 17.3 mph 31.1 mph N/A   Mostly Cloudy
9:52 AM 18.0 °F 0.2 °F -0.0 °F 45% 29.62 in 10.0 mi NNW 24.2 mph 35.7 mph N/A   Clear
10:52 AM 17.1 °F -0.3 °F -0.0 °F 47% 29.68 in 10.0 mi NW 21.9 mph 31.1 mph N/A   Clear
11:52 AM 15.1 °F -1.6 °F -0.0 °F 51% 29.70 in 10.0 mi NW 18.4 mph 31.1 mph N/A   Clear
12:52 PM 15.1 °F -1.1 °F -2.0 °F 47% 29.72 in 10.0 mi NW 17.3 mph - N/A   Clear
1:52 PM 14.0 °F -5.1 °F -5.1 °F 43% 29.74 in 10.0 mi NW 24.2 mph 28.8 mph N/A   Clear
2:52 PM 15.1 °F -0.6 °F -5.1 °F 41% 29.76 in 10.0 mi WNW 16.1 mph 26.5 mph N/A   Clear
3:52 PM 14.0 °F -3.0 °F -5.1 °F 43% 29.78 in 10.0 mi WNW 18.4 mph 26.5 mph N/A   Clear
4:52 PM 12.9 °F -4.9 °F -7.1 °F 41% 29.83 in 10.0 mi WNW 19.6 mph 25.3 mph N/A   Clear
5:52 PM 10.9 °F -5.4 °F -5.1 °F 49% 29.85 in 10.0 mi West 15.0 mph 20.7 mph N/A   Clear
6:52 PM 10.0 °F -4.5 °F -5.1 °F 51% 29.88 in 10.0 mi West 11.5 mph 19.6 mph N/A   Clear
7:52 PM 8.1 °F -5.3 °F -4.0 °F 58% 29.90 in 10.0 mi West 9.2 mph 18.4 mph N/A   Clear
8:52 PM 7.0 °F -7.5 °F -5.1 °F 58% 29.90 in 10.0 mi West 10.4 mph - N/A   Clear
9:52 PM 7.0 °F -5.7 °F -5.1 °F 58% 29.89 in - West 8.1 mph - N/A   Clear
10:52 PM 7.0 °F -5.7 °F -5.1 °F 58% 29.87 in - WNW 8.1 mph - N/A   Partly Cloudy
11:52 PM 7.0 °F 0.1 °F -5.1 °F 58% 29.83 in - West 3.5 mph - N/A   Scattered Clouds